Hourly Data Report for September 06, 2003

TORONTO CITY
ONTARIO

43°40'00.000" N
79°24'00.000" W
112.50 m
6158355
71508
XTO

Download Data

Hourly Data (September 2003)
Hourly Data Report for September 6, 2003
TIME
LST
Temp Definition
°C
Dew Point Definition
°C
Rel Hum Definition
%
Precip. Amount Definition
mm

Wind Dir Definition
10's deg

Wind Spd Definition
km/h
Visibility Definition
km
Stn Press Definition
kPa
Hmdx Definition


Wind Chill Definition


Weather Definition


00:00 15.0 6.0 55   LegendMM LegendMM LegendMM 100.57     LegendNANA
01:00 15.1 6.3 56   LegendMM LegendMM LegendMM 100.59     LegendNANA
02:00 14.5 6.6 59   LegendMM LegendMM LegendMM 100.57     LegendNANA
03:00 13.9 6.5 61   LegendMM LegendMM LegendMM 100.57     LegendNANA
04:00 12.7 7.1 69   LegendMM LegendMM LegendMM 100.57     LegendNANA
05:00 11.8 7.0 72   LegendMM LegendMM LegendMM 100.62     LegendNANA
06:00 11.5 6.7 72   LegendMM LegendMM LegendMM 100.66     LegendNANA
07:00 13.3 7.9 70   LegendMM LegendMM LegendMM 100.67     LegendNANA
08:00 15.9 8.4 61   LegendMM LegendMM LegendMM 100.66     LegendNANA
09:00 17.9 8.6 54   LegendMM LegendMM LegendMM 100.63     LegendNANA
10:00 20.2 9.8 51   LegendMM LegendMM LegendMM 100.63     LegendNANA
11:00 21.9 9.7 46   LegendMM LegendMM LegendMM 100.62     LegendNANA
12:00 23.0 10.1 44   LegendMM LegendMM LegendMM 100.58     LegendNANA
13:00 23.8 10.3 42   LegendMM LegendMM LegendMM 100.50 25   LegendNANA
14:00 25.3 10.4 39   LegendMM LegendMM LegendMM 100.43 27   LegendNANA
15:00 25.6 9.8 37   LegendMM LegendMM LegendMM 100.35 27   LegendNANA
16:00 23.7 10.5 43   LegendMM LegendMM LegendMM 100.30 25   LegendNANA
17:00 23.1 11.7 49   LegendMM LegendMM LegendMM 100.31 25   LegendNANA
18:00 22.2 12.6 55   LegendMM LegendMM LegendMM 100.30 25   LegendNANA
19:00 21.2 13.9 63   LegendMM LegendMM LegendMM 100.33 25   LegendNANA
20:00 19.9 14.8 72   LegendMM LegendMM LegendMM 100.35     LegendNANA
21:00 18.3 14.9 81   LegendMM LegendMM LegendMM 100.35     LegendNANA
22:00 17.8 14.1 79   LegendMM LegendMM LegendMM 100.36     LegendNANA
23:00 18.3 12.9 71   LegendMM LegendMM LegendMM 100.35     LegendNANA

Notes on Data Quality.

Legend

  • E = Estimated
  • M = Missing
  • NA = Not Available*
  • [empty] = Indicates an unobserved value
Date modified: